Thurgau — HBLF — position and weather

sailwx.info

Track history (hours):
 
Tides and Currents Weather Stations Pressure Air Temp Water Temp Dewpoint Dewpoint Depression Visibility Wind Speed Wind Dir Waves Ship Positions

Thurgau

Last reported at 2014-Oct-28 15:33 UTC. Time now 2014-Nov-01 02:00 UTC.
Position N 39°43' W 031°55'.

Length 180 m; draft 10.5 m.

Type: Ship. MMSI: 269217000.

Date/timePositionNaut miles runAvg speedWind from/ knotsBaromVisibWave heightAir tempDewpointWater temp
2014-Oct-28 15:33N 39°43' W 031°55'1211.8
2014-Oct-28 14:33N 39°49' W 031°43'2512.4
2014-Oct-28 12:32N 40°04' W 031°16'  
2014-Oct-23 06:25N 50°35' E 000°17'1112.7
2014-Oct-23 05:33N 50°38' E 000°34'1414.2
2014-Oct-23 04:34N 50°46' E 000°52'2713.7
2014-Oct-23 02:33N 51°03' E 001°26'1211.5
2014-Oct-23 01:33N 51°10' E 001°40'1110.7
2014-Oct-23 00:33N 51°19' E 001°50'1111.2
2014-Oct-22 23:34N 51°28' E 002°00'1312.4
2014-Oct-22 22:32N 51°38' E 002°12'16312.1
2014-Oct-22 09:08N 53°51' E 004°47'711.0
2014-Oct-22 08:33N 53°58' E 004°49'9 9.4
2014-Oct-22 07:32N 54°07' E 004°55'9 8.3
2014-Oct-22 06:30N 54°14' E 005°04'24 7.7
2014-Oct-22 03:25N 54°32' E 005°30'7 8.0
2014-Oct-22 02:33N 54°38' E 005°35'8 8.3
2014-Oct-22 01:32N 54°45' E 005°42'15510.3
2014-Oct-21 10:33N 56°59' E 008°03'1212.2
2014-Oct-21 09:32N 57°09' E 008°15'6512.0
2014-Oct-21 04:06N 57°45' E 009°56'712.2
2014-Oct-21 03:33N 57°46' E 010°08'1211.9
2014-Oct-21 02:33N 57°47' E 010°30'1010.3
2014-Oct-21 01:33N 57°47' E 010°50'1312.8
2014-Oct-21 00:33N 57°38' E 011°07'1312.9
2014-Oct-20 23:33N 57°29' E 011°25'1313.2
2014-Oct-20 22:33N 57°17' E 011°34'1413.4
2014-Oct-20 21:30N 57°04' E 011°43'1313.2
2014-Oct-20 20:33N 56°52' E 011°50'1211.5
2014-Oct-20 19:33N 56°40' E 011°49'132 8.8
2014-Oct-20 04:33N 54°29' E 011°38'1111.2
2014-Oct-20 03:33N 54°26' E 011°56'10 9.9
2014-Oct-20 02:33N 54°29' E 012°13'8211.4
2014-Oct-19 19:20N 54°39' E 014°33'1313.8
2014-Oct-19 18:22N 54°41' E 014°56'12913.1
2014-Oct-19 08:33N 55°11' E 018°34'1312.9
2014-Oct-19 07:32N 55°16' E 018°55'1612.4
2014-Oct-19 06:17N 55°22' E 019°21'912.2
2014-Oct-19 05:31N 55°25' E 019°36'1312.3
2014-Oct-19 04:28N 55°30' E 019°57'  
Track history (hours):
 
Tides and Currents Weather Stations Pressure Air Temp Water Temp Dewpoint Dewpoint Depression Visibility Wind Speed Wind Dir Waves Ship Positions

Thurgau

Last reported at 2014-Oct-28 15:33 UTC. Time now 2014-Nov-01 02:00 UTC.
Position N 39°43' W 031°55'.

Length 180 m; draft 10.5 m.

Type: Ship. MMSI: 269217000.

Date/timePositionNaut miles runAvg speedWind from/ knotsBaromVisibWave heightAir tempDewpointWater temp
2014-Oct-28 15:33N 39°43' W 031°55'1211.8
2014-Oct-28 14:33N 39°49' W 031°43'2512.4
2014-Oct-28 12:32N 40°04' W 031°16'  
2014-Oct-23 06:25N 50°35' E 000°17'1112.7
2014-Oct-23 05:33N 50°38' E 000°34'1414.2
2014-Oct-23 04:34N 50°46' E 000°52'2713.7
2014-Oct-23 02:33N 51°03' E 001°26'1211.5
2014-Oct-23 01:33N 51°10' E 001°40'1110.7
2014-Oct-23 00:33N 51°19' E 001°50'1111.2
2014-Oct-22 23:34N 51°28' E 002°00'1312.4
2014-Oct-22 22:32N 51°38' E 002°12'16312.1
2014-Oct-22 09:08N 53°51' E 004°47'711.0
2014-Oct-22 08:33N 53°58' E 004°49'9 9.4
2014-Oct-22 07:32N 54°07' E 004°55'9 8.3
2014-Oct-22 06:30N 54°14' E 005°04'24 7.7
2014-Oct-22 03:25N 54°32' E 005°30'7 8.0
2014-Oct-22 02:33N 54°38' E 005°35'8 8.3
2014-Oct-22 01:32N 54°45' E 005°42'15510.3
2014-Oct-21 10:33N 56°59' E 008°03'1212.2
2014-Oct-21 09:32N 57°09' E 008°15'6512.0
2014-Oct-21 04:06N 57°45' E 009°56'712.2
2014-Oct-21 03:33N 57°46' E 010°08'1211.9
2014-Oct-21 02:33N 57°47' E 010°30'1010.3
2014-Oct-21 01:33N 57°47' E 010°50'1312.8
2014-Oct-21 00:33N 57°38' E 011°07'1312.9
2014-Oct-20 23:33N 57°29' E 011°25'1313.2
2014-Oct-20 22:33N 57°17' E 011°34'1413.4
2014-Oct-20 21:30N 57°04' E 011°43'1313.2
2014-Oct-20 20:33N 56°52' E 011°50'1211.5
2014-Oct-20 19:33N 56°40' E 011°49'132 8.8
2014-Oct-20 04:33N 54°29' E 011°38'1111.2
2014-Oct-20 03:33N 54°26' E 011°56'10 9.9
2014-Oct-20 02:33N 54°29' E 012°13'8211.4
2014-Oct-19 19:20N 54°39' E 014°33'1313.8
2014-Oct-19 18:22N 54°41' E 014°56'12913.1
2014-Oct-19 08:33N 55°11' E 018°34'1312.9
2014-Oct-19 07:32N 55°16' E 018°55'1612.4
2014-Oct-19 06:17N 55°22' E 019°21'912.2
2014-Oct-19 05:31N 55°25' E 019°36'1312.3
2014-Oct-19 04:28N 55°30' E 019°57'  

Dump ship's entire track history